Weather observations for the past three days for
Beaufort County Airport
Imperial (Metric)
Date Time (edt) Wind (mph) Vis. (mi.) Weather Sky Cond. Temperature (ºF) Relative Humidity Wind Chill (°F) Heat Index (°F) Pressure Precipitation (in)
Air Dwpt 6 hour altimeter (in) sea level (mb) 1 hr 3 hr 6 hr
Max. Min.
25 15:35 S 12 G 16 10.00 Fair CLR 86 77 75% 97 30.1 0.0
25 15:15 S 8 10.00 Fair CLR 86 78.8 79% 99 30.11 0.0
25 14:55 S 9 10.00 Fair CLR 86 78.8 79% 99 30.12 0.0
25 14:35 S 6 10.00 Thunderstorm in Vicinity CLR 86 77 75% 97 30.13 0.0
25 14:15 S 8 10.00 Fair CLR 86 77 75% 97 30.14 0.0
25 13:55 S 7 10.00 Fair CLR 84.2 77 79% 94 30.15 0.0
25 13:35 S 6 10.00 Fair CLR 82.4 77 84% 91 30.15 0.0
25 13:15 S 5 10.00 Light Rain SCT029 80.6 77 89% 87 30.16 0.0
25 12:55 S 3 10.00 Thunderstorm Light Rain in Vicinity SCT034 80.6 77 89% 87 30.16 0.0
25 12:35 S 3 10.00 Thunderstorm in Vicinity CLR 80.6 77 89% 87 30.17 0.0
25 12:15 SW 6 7.00 Thunderstorm in Vicinity CLR 78.8 77 94% 83 30.18 0.0
25 11:55 SW 5 7.00 Light Rain SCT016 SCT027 SCT036 78.8 77 94% 83 30.19 0.0
25 11:35 SW 7 10.00 Rain SCT016 BKN037 BKN055 82.4 77 84% 91 30.18 0.0
25 11:15 S 10 10.00 Thunderstorm SCT016 SCT024 SCT060 84.2 77 79% 94 30.18 0.0
25 10:55 SW 6 10.00 Thunderstorm in Vicinity BKN016 BKN024 BKN031 82.4 77 84% 91 30.17 0.0
25 10:35 S 6 10.00 Mostly Cloudy BKN016 BKN022 BKN038 84.2 77 79% 94 30.18 0.0
25 10:15 S 3 10.00 Fair CLR 82.4 77 84% 91 30.18 0.0
25 09:55 Calm 10.00 Fair CLR 82.4 77 84% 91 30.19 0.0
25 09:35 Calm 10.00 Fair CLR 80.6 77 89% 87 30.19 0.0
25 09:15 Calm 10.00 Fair CLR 80.6 77 89% 87 30.19 0.0
25 08:55 Calm 10.00 Thunderstorm in Vicinity CLR 78.8 75.2 89% 82 30.19 0.0
25 08:35 Calm 10.00 Fair CLR 78.8 77 94% 83 30.19 0.0
25 08:15 Calm 10.00 Fair CLR 78.8 77 94% 83 30.19 0.0
25 07:55 Calm 10.00 Fair CLR 77 75.2 94% 78 30.19 0.0
25 07:35 Calm 10.00 Fair CLR 77 75.2 94% 78 30.19 0.0
25 07:15 Calm 10.00 Fair CLR 77 75.2 94% 78 30.18 0.0
25 06:55 Calm 10.00 Fair CLR 77 75.2 94% 78 30.18 0.0
25 06:35 Calm 10.00 Fair CLR 75.2 73.4 94% 74 30.17 0.0
25 06:15 Calm 10.00 Fair CLR 77 73.4 89% 78 30.17 0.0
25 05:55 Calm 10.00 Fair CLR 75.2 73.4 94% 74 30.17 0.0
25 05:35 Calm 10.00 Fair CLR 75.2 75.2 100% 73 30.17 0.0
25 05:15 Calm 10.00 Fair CLR 75.2 73.4 94% 74 30.17 0.0
25 04:55 Calm 10.00 Fair CLR 75.2 73.4 94% 74 30.17 0.0
25 04:35 Calm 10.00 Thunderstorm in Vicinity CLR 75.2 73.4 94% 74 30.17 0.0
25 04:15 Calm 10.00 Fair CLR 75.2 73.4 94% 74 30.17 0.0
25 03:55 Calm 10.00 Thunderstorm Light Rain in Vicinity SCT065 75.2 73.4 94% 74 30.18 0.0
25 03:35 Calm 10.00 Partly Cloudy SCT065 75.2 73.4 94% 74 30.19 0.0
25 03:15 Calm 10.00 Thunderstorm SCT040 SCT046 77 73.4 89% 78 30.19 0.0
25 02:55 W 5 4.00 Thunderstorm Light Rain SCT011 BKN030 OVC040 75.2 73.4 94% 74 30.2 0.0
25 02:35 W 14 G 20 1.50 Heavy Rain BKN008 OVC019 75.2 73.4 94% 74 30.22 0.0
25 02:15 W 7 3.00 Thunderstorm Heavy Rain SCT011 BKN024 OVC033 78.8 77 94% 83 30.21 0.0
25 01:55 W 6 10.00 Thunderstorm SCT029 SCT038 BKN060 80.6 77 89% 87 30.19 0.0
25 01:35 W 7 10.00 Thunderstorm SCT025 SCT035 BKN110 80.6 77 89% 87 30.2 0.0
25 01:15 SW 6 7.00 Light Rain SCT023 SCT030 SCT037 80.6 75.2 84% 86 30.21 0.0
25 00:55 SW 5 10.00 Partly Cloudy SCT023 SCT031 SCT041 82.4 75.2 79% 89 30.2 0.0
25 00:35 SW 6 10.00 Partly Cloudy SCT021 SCT027 SCT033 80.6 73.4 79% 85 30.2 0.0
25 00:15 SW 8 10.00 Thunderstorm in Vicinity SCT021 80.6 73.4 79% 85 30.21 0.0
24 23:55 SW 9 10.00 Partly Cloudy SCT023 82.4 77 84% 91 30.21 0.0
24 23:35 S 6 10.00 Fair CLR 82.4 77 84% 91 30.21 0.0
24 23:15 S 7 10.00 Partly Cloudy SCT019 SCT027 82.4 77 84% 91 30.21 0.0
24 22:55 S 8 10.00 Mostly Cloudy BKN021 BKN027 BKN048 82.4 77 84% 91 30.22 0.0
24 22:35 S 8 10.00 Mostly Cloudy BKN021 BKN048 82.4 77 84% 91 30.21 0.0
24 22:15 S 10 10.00 Mostly Cloudy BKN021 82.4 77 84% 91 30.2 0.0
24 21:55 S 9 10.00 Partly Cloudy SCT021 SCT026 SCT030 82.4 77 84% 91 30.2 0.0
24 21:35 S 7 10.00 Mostly Cloudy SCT019 SCT026 BKN030 82.4 77 84% 91 30.2 0.0
24 21:15 S 10 10.00 Mostly Cloudy BKN023 BKN028 BKN038 82.4 77 84% 91 30.19 0.0
24 20:55 S 9 10.00 Partly Cloudy SCT021 82.4 77 84% 91 30.19 0.0
24 20:35 S 7 10.00 Fair CLR 82.4 77 84% 91 30.18 0.0
24 20:15 S 7 10.00 Fair CLR 82.4 77 84% 91 30.17 0.0
24 19:55 S 9 10.00 Partly Cloudy SCT020 82.4 77 84% 91 30.17 0.0
24 19:35 S 7 10.00 Partly Cloudy SCT020 84.2 77 79% 94 30.17 0.0
24 19:15 S 10 G 20 10.00 Fair CLR 84.2 75.2 74% 92 30.16 0.0
24 18:55 S 6 10.00 Fair CLR 84.2 75.2 74% 92 30.16 0.0
24 18:35 S 6 10.00 Fair CLR 84.2 75.2 74% 92 30.16 0.0
24 18:15 S 8 G 16 10.00 Fair CLR 84.2 75.2 74% 92 30.15 0.0
24 17:55 S 8 10.00 Partly Cloudy SCT024 86 75.2 70% 95 30.15 0.0
24 17:35 S 6 10.00 Fair CLR 86 75.2 70% 95 30.15 0.0
24 17:15 S 9 10.00 Fair CLR 86 73.4 66% 93 30.16 0.0
24 16:55 S 14 G 18 10.00 Fair CLR 87.8 73.4 62% 96 30.15 0.0
24 16:35 S 9 G 16 10.00 Fair CLR 87.8 73.4 62% 96 30.16 0.0
24 16:15 S 8 G 17 10.00 Fair CLR 86 75.2 70% 95 30.17 0.0
24 15:55 S 8 G 16 10.00 Fair CLR 87.8 77 70% 100 30.17 0.0
24 15:35 S 13 G 17 10.00 Fair CLR 87.8 77 70% 100 30.17 0.0
24 15:15 S 10 10.00 Fair CLR 87.8 75.2 66% 98 30.17 0.0
24 14:55 S 12 G 16 10.00 Thunderstorm in Vicinity CLR 87.8 77 70% 100 30.17 0.0
24 14:35 S 12 G 17 10.00 Fair CLR 87.8 77 70% 100 30.17 0.0
24 14:15 S 10 G 17 10.00 Fair CLR 87.8 77 70% 100 30.18 0.0
24 13:55 S 9 10.00 Fair CLR 87.8 75.2 66% 98 30.19 0.0
24 13:35 S 7 10.00 Fair CLR 87.8 75.2 66% 98 30.19 0.0
24 13:15 S 12 10.00 Fair CLR 87.8 77 70% 100 30.19 0.0
24 12:55 S 10 10.00 Thunderstorm in Vicinity CLR 87.8 75.2 66% 98 30.2 0.0
24 12:35 S 8 10.00 Fair CLR 87.8 73.4 62% 96 30.21 0.0
24 12:15 S 8 10.00 Partly Cloudy SCT025 87.8 73.4 62% 96 30.21 0.0
24 11:55 SW 7 10.00 Fair CLR 86 77 75% 97 30.21 0.0
24 11:35 SW 6 10.00 Fair CLR 86 75.2 70% 95 30.22 0.0
24 11:15 S 7 10.00 Fair CLR 86 77 75% 97 30.21 0.0
24 10:55 SW 6 10.00 Fair CLR 86 77 75% 97 30.21 0.0
24 10:35 S 6 10.00 Fair CLR 86 77 75% 97 30.21 0.0
24 10:15 SW 6 10.00 Fair CLR 84.2 75.2 74% 92 30.21 0.0
24 09:55 SW 6 10.00 Fair CLR 84.2 77 79% 94 30.2 0.0
24 09:35 SW 7 10.00 Fair CLR 84.2 77 79% 94 30.2 0.0
24 09:15 SW 5 10.00 Fair CLR 82.4 77 84% 91 30.2 0.0
24 08:55 SW 5 10.00 Fair CLR 82.4 77 84% 91 30.2 0.0
24 08:35 SW 6 10.00 Fair CLR 80.6 77 89% 87 30.2 0.0
24 08:15 SW 3 10.00 Partly Cloudy SCT012 80.6 77 89% 87 30.2 0.0
24 07:55 SW 7 10.00 Partly Cloudy SCT012 80.6 77 89% 87 30.19 0.0
24 07:35 Calm 10.00 Fair CLR 82.4 78.8 89% 92 30.19 0.0
24 07:15 SW 3 10.00 Fair CLR 80.6 78.8 94% 88 30.18 0.0
24 06:55 Calm 10.00 Fair CLR 80.6 78.8 94% 88 30.17 0.0
24 06:35 S 3 10.00 Fair CLR 80.6 78.8 94% 88 30.17 0.0
24 06:15 S 3 10.00 Partly Cloudy SCT060 80.6 78.8 94% 88 30.16 0.0
24 05:55 S 3 10.00 Mostly Cloudy SCT016 BKN060 82.4 78.8 89% 92 30.16 0.0
24 05:35 S 5 10.00 Mostly Cloudy SCT018 BKN060 82.4 78.8 89% 92 30.15 0.0
24 05:15 S 5 10.00 Mostly Cloudy SCT018 BKN060 BKN070 82.4 78.8 89% 92 30.16 0.0
24 04:55 SW 3 10.00 Partly Cloudy SCT060 SCT100 82.4 78.8 89% 92 30.17 0.0
24 04:35 Calm 10.00 Partly Cloudy SCT060 SCT070 SCT110 82.4 77 84% 91 30.17 0.0
24 04:15 SW 3 10.00 Partly Cloudy SCT060 SCT070 82.4 77 84% 91 30.17 0.0
24 03:55 S 3 10.00 Partly Cloudy SCT080 82.4 77 84% 91 30.17 0.0
24 03:35 S 6 10.00 Partly Cloudy SCT080 82.4 77 84% 91 30.16 0.0
24 03:15 S 8 10.00 Fair CLR 82.4 77 84% 91 30.17 0.0
24 02:55 S 7 10.00 Fair CLR 82.4 77 84% 91 30.17 0.0
24 02:35 SW 6 10.00 Fair CLR 82.4 77 84% 91 30.17 0.0
24 02:15 SW 5 10.00 Fair CLR 82.4 77 84% 91 30.17 0.0
24 01:55 SW 7 10.00 Fair CLR 82.4 77 84% 91 30.17 0.0
24 01:35 S 7 10.00 Fair CLR 82.4 77 84% 91 30.17 0.0
24 01:15 S 7 G 18 10.00 Partly Cloudy SCT017 82.4 77 84% 91 30.16 0.0
24 00:55 S 9 G 21 10.00 Partly Cloudy SCT017 82.4 77 84% 91 30.17 0.0
24 00:35 S 8 G 17 10.00 Mostly Cloudy BKN017 82.4 77 84% 91 30.17 0.0
24 00:15 S 14 G 20 10.00 Mostly Cloudy BKN017 82.4 77 84% 91 30.16 0.0
23 23:55 S 14 G 18 10.00 Mostly Cloudy BKN017 BKN024 82.4 77 84% 91 30.17 0.0
23 23:35 S 8 10.00 Mostly Cloudy BKN017 82.4 77 84% 91 30.16 0.0
23 23:15 S 9 10.00 Mostly Cloudy BKN017 82.4 77 84% 91 30.16 0.0
23 22:55 S 7 10.00 Partly Cloudy SCT017 82.4 78.8 89% 92 30.15 0.0
23 22:35 S 9 G 16 10.00 Fair CLR 82.4 77 84% 91 30.15 0.0
23 22:15 S 9 10.00 Fair CLR 82.4 77 84% 91 30.14 0.0
23 21:55 S 6 10.00 Fair CLR 82.4 77 84% 91 30.14 0.0
23 21:35 S 6 10.00 Fair CLR 82.4 77 84% 91 30.13 0.0
23 21:15 S 9 10.00 Fair CLR 82.4 77 84% 91 30.12 0.0
23 20:55 S 5 10.00 Fair CLR 82.4 77 84% 91 30.12 0.0
23 20:35 S 7 10.00 Fair CLR 82.4 77 84% 91 30.12 0.0
23 20:15 S 7 10.00 Fair CLR 82.4 75.2 79% 89 30.11 0.0
23 19:55 S 7 10.00 Fair CLR 84.2 77 79% 94 30.11 0.0
23 19:35 S 12 10.00 Fair CLR 86 75.2 70% 95 30.1 0.0
23 19:15 S 9 G 16 10.00 Fair CLR 86 77 75% 97 30.09 0.0
23 18:55 S 8 10.00 Fair CLR 86 77 75% 97 30.09 0.0
23 18:35 S 12 G 16 10.00 Fair CLR 86 77 75% 97 30.08 0.0
23 18:15 S 10 G 17 10.00 Fair CLR 87.8 75.2 66% 98 30.08 0.0
23 17:55 S 8 10.00 Fair CLR 87.8 75.2 66% 98 30.07 0.0
23 17:35 S 9 10.00 Fair CLR 87.8 75.2 66% 98 30.08 0.0
23 17:15 S 9 10.00 Fair CLR 87.8 73.4 62% 96 30.08 0.0
23 16:55 S 13 G 17 10.00 Fair CLR 87.8 77 70% 100 30.07 0.0
23 16:35 S 7 G 17 10.00 Fair CLR 89.6 75.2 63% 100 30.07 0.0
23 16:15 S 9 10.00 Partly Cloudy SCT028 SCT033 87.8 77 70% 100 30.08 0.0
23 15:55 S 8 10.00 Partly Cloudy SCT026 89.6 77 67% 103 30.09 0.0
23 15:35 S 8 10.00 Partly Cloudy SCT026 89.6 78.8 71% 105 30.09 0.0
23 15:15 S 9 10.00 Fair CLR 89.6 77 67% 103 30.1 0.0
23 14:55 S 8 10.00 Fair CLR 89.6 75.2 63% 100 30.11 0.0
23 14:35 S 6 10.00 Fair CLR 87.8 73.4 62% 96 30.11 0.0
23 14:15 S 9 10.00 Fair CLR 87.8 77 70% 100 30.11 0.0
23 13:55 SW 6 10.00 Partly Cloudy SCT028 89.6 77 67% 103 30.12 0.0
23 13:35 SW 6 10.00 Partly Cloudy SCT030 89.6 77 67% 103 30.12 0.0
23 13:15 S 6 10.00 Partly Cloudy SCT030 89.6 75.2 63% 100 30.13 0.0
23 12:55 SW 7 7.00 Fair CLR 87.8 73.4 62% 96 30.13 0.0
23 12:35 SW 3 10.00 Fair CLR 87.8 77 70% 100 30.13 0.0
23 12:15 SW 8 10.00 Partly Cloudy SCT026 89.6 75.2 63% 100 30.14 0.0
23 11:55 SW 5 10.00 Partly Cloudy SCT026 87.8 75.2 66% 98 30.14 0.0
23 11:35 W 8 10.00 Partly Cloudy SCT026 87.8 75.2 66% 98 30.13 0.0
23 11:15 W 7 10.00 Partly Cloudy SCT024 86 77 75% 97 30.13 0.0
23 10:55 SW 3 10.00 Fair CLR 86 77 75% 97 30.13 0.0
23 10:35 SW 3 10.00 Fair CLR 86 75.2 70% 95 30.13 0.0
23 10:15 S 3 10.00 Thunderstorm in Vicinity SCT019 86 75.2 70% 95 30.13 0.0
23 09:55 W 6 10.00 Thunderstorm in Vicinity SCT019 86 77 75% 97 30.12 0.0
23 09:35 SW 5 10.00 Thunderstorm in Vicinity CLR 84.2 75.2 74% 92 30.12 0.0
23 09:15 W 7 10.00 Thunderstorm CLR 84.2 77 79% 94 30.12 0.0
23 08:55 W 6 10.00 Fair CLR 84.2 77 79% 94 30.12 0.0
23 08:35 Calm 7.00 Fair CLR 82.4 77 84% 91 30.12 0.0
23 08:15 Calm 10.00 Fair CLR 80.6 77 89% 87 30.12 0.0
23 07:55 Calm 10.00 Fair CLR 78.8 77 94% 83 30.12 0.0
23 07:35 W 3 10.00 Fair CLR 78.8 77 94% 83 30.11 0.0
23 07:15 Calm 10.00 Fair CLR 78.8 77 94% 83 30.11 0.0
23 06:55 W 5 10.00 Fair CLR 78.8 77 94% 83 30.1 0.0
23 06:35 Calm 10.00 Fair CLR 78.8 77 94% 83 30.09 0.0
23 06:15 SW 3 10.00 Fair CLR 78.8 77 94% 83 30.09 0.0
23 05:55 W 3 10.00 Fair CLR 78.8 77 94% 83 30.08 0.0
23 05:35 Calm 10.00 Fair CLR 78.8 77 94% 83 30.08 0.0
23 05:15 Calm 10.00 Fair CLR 78.8 77 94% 83 30.07 0.0
23 04:55 Calm 10.00 Fair CLR 78.8 77 94% 83 30.06 0.0
23 04:35 Calm 10.00 Fair CLR 78.8 77 94% 83 30.05 0.0
23 04:15 Calm 10.00 Fair CLR 78.8 77 94% 83 30.05 0.0
23 03:55 Calm 10.00 Fair CLR 78.8 77 94% 83 30.06 0.0
23 03:35 Calm 10.00 Fair CLR 78.8 77 94% 83 30.06 0.0
23 03:15 Calm 10.00 Fair CLR 78.8 77 94% 83 30.06 0.0
23 02:55 Calm 10.00 Fair CLR 78.8 77 94% 83 30.06 0.0
23 02:35 Calm 10.00 Fair CLR 80.6 77 89% 87 30.06 0.0
23 02:15 Calm 10.00 Fair CLR 80.6 77 89% 87 30.06 0.0
23 01:55 SW 3 10.00 Partly Cloudy SCT023 80.6 77 89% 87 30.07 0.0
23 01:35 W 7 10.00 Partly Cloudy SCT023 80.6 77 89% 87 30.07 0.0
23 01:15 W 5 10.00 Partly Cloudy SCT023 80.6 77 89% 87 30.06 0.0
23 00:55 Calm 10.00 Fair CLR 80.6 77 89% 87 30.06 0.0
23 00:35 Calm 10.00 Fair CLR 80.6 77 89% 87 30.07 0.0
23 00:15 S 3 10.00 Fair CLR 80.6 77 89% 87 30.07 0.0
22 23:55 SW 3 10.00 Fair CLR 80.6 77 89% 87 30.08 0.0
22 23:35 Calm 10.00 Fair CLR 78.8 77 94% 83 30.08 0.0
22 23:15 Calm 10.00 Fair CLR 80.6 75.2 84% 86 30.09 0.0
22 22:55 Calm 10.00 Fair CLR 80.6 75.2 84% 86 30.08 0.0
22 22:35 Calm 10.00 Fair CLR 80.6 73.4 79% 85 30.07 0.0
22 22:15 Calm 10.00 Fair CLR 78.8 73.4 84% 82 30.06 0.0
22 21:55 SW 3 10.00 Fair CLR 78.8 73.4 84% 82 30.06 0.0
22 21:35 Calm 10.00 Fair CLR 78.8 73.4 84% 82 30.06 0.0
22 21:15 SW 3 10.00 Fair CLR 78.8 71.6 79% 82 30.06 0.0
22 20:55 SW 6 10.00 Fair CLR 78.8 71.6 79% 82 30.05 0.0
22 20:35 SW 3 10.00 Fair CLR 78.8 71.6 79% 82 30.04 0.0
22 20:15 SW 6 10.00 Fair CLR 80.6 73.4 79% 85 30.03 0.0
22 19:55 S 9 10.00 Fair CLR 82.4 77 84% 91 30.02 0.0
22 19:35 SW 6 10.00 Partly Cloudy SCT023 82.4 77 84% 91 30.03 0.0
22 19:15 SW 6 10.00 Partly Cloudy SCT023 82.4 77 84% 91 30.02 0.0
22 18:55 S 7 10.00 Fair CLR 84.2 77 79% 94 30.01 0.0
22 18:35 S 6 10.00 Fair CLR 82.4 77 84% 91 30.01 0.0
22 18:15 S 6 10.00 Fair CLR 80.6 77 89% 87 30.01 0.0
22 17:55 SW 8 10.00 Fair CLR 82.4 77 84% 91 30.02 0.0
22 17:35 SW 5 10.00 Fair CLR 82.4 77 84% 91 30.02 0.0
22 17:15 S 8 10.00 Fair CLR 82.4 77 84% 91 30.02 0.0
22 16:55 S 8 10.00 Thunderstorm CLR 82.4 77 84% 91 30.02 0.0
22 16:35 S 10 7.00 Thunderstorm CLR 82.4 77 84% 91 30.02 0.0
22 16:15 S 6 7.00 Thunderstorm CLR 82.4 78.8 89% 92 30.02 0.0
22 15:55 S 8 10.00 Thunderstorm in Vicinity CLR 84.2 77 79% 94 30.02 0.0
Date Time (edt) Wind (mph) Vis. (mi.) Weather Sky Cond. Air Dwpt Max. Min. Relative Humidity Wind Chill (°F) Heat Index (°F) altimeter (in) sea level (mb) 1 hr 3 hr 6 hr
6 hour
Temperature (ºF) Pressure Precipitation (in)